RH
21 22 25 27 34 45 58 65 67 72 75 67 59 58 58 57 56 52 45 38 33 31 30 29 30 32 34 33 32 31 29 27 25 22 20 19 18 22 29 38 48 54 56 60 66 71 76 84 94 97 90 77 65 56 48 41 35 32 30 29 29 28 27
22 20 22 26 28 34 47 61 69 75 81 80 72 66 62 59 59 58 55 51 46 41 38 35 33 35 37 37 36 35 33 31 29 27 24 22 19 16 15 17 24 35 44 52 58 63 65 69 77 88 95 94 86 75 66 56 46 40 35 32 31 31 30
28 24 21 24 29 31 36 48 61 73 83 87 83 76 70 64 61 59 58 57 54 51 48 45 41 40 40 39 38 38 37 35 33 31 29 27 25 22 18 14 12 14 23 34 45 53 58 61 64 70 80 91 96 93 86 75 64 53 45 38 35 33 33
32 32 26 23 28 33 35 38 48 61 76 88 90 86 80 72 66 63 60 57 56 54 52 51 48 46 44 42 41 40 40 39 37 36 34 31 29 26 23 20 15 11 10 14 23 35 46 53 57 59 64 74 86 95 97 93 83 72 60 50 42 37 35
32 37 37 30 28 30 34 37 41 47 59 76 90 94 91 83 75 70 65 61 58 55 54 53 52 50 47 45 45 44 41 39 37 34 32 29 27 26 24 22 19 15 11 8 8 15 25 37 48 54 56 61 69 80 91 97 96 89 79 66 55 47 40
33 37 42 41 38 34 32 34 38 42 46 56 73 89 96 94 87 79 73 68 63 58 55 53 51 49 47 44 41 39 36 33 31 29 27 25 23 21 21 20 19 17 14 11 7 6 9 17 29 42 51 55 59 65 74 86 93 95 91 82 71 61 52
37 38 41 43 45 46 44 40 38 40 41 43 51 68 84 94 95 91 84 76 71 65 58 52 46 41 38 36 35 33 32 30 29 28 28 26 22 20 18 17 17 16 15 13 10 8 6 6 12 24 37 49 56 59 62 70 80 88 92 92 86 78 68
43 42 42 42 44 47 52 53 49 45 44 42 42 47 60 75 86 93 94 89 82 76 68 58 49 42 38 36 34 32 31 30 30 31 32 31 27 21 16 13 12 12 12 13 12 10 8 6 5 9 19 34 49 58 60 61 68 76 83 90 92 89 84
46 48 46 45 45 47 50 53 54 53 51 48 45 42 44 53 65 75 85 91 91 88 82 72 60 50 45 41 37 34 32 31 33 35 37 37 34 29 21 13 8 8 8 8 9 10 10 9 7 5 7 17 32 49 57 61 65 70 75 83 90 92 94
40 48 52 51 48 49 53 55 54 53 53 54 53 49 44 44 50 57 64 73 80 84 84 80 70 58 49 44 41 38 37 38 40 42 43 42 40 39 35 25 14 7 6 7 7 7 8 9 9 8 6 6 14 28 45 58 67 69 69 76 84 89 94
31 39 49 55 54 49 51 58 61 57 53 52 55 58 55 49 47 49 53 57 62 66 68 65 60 53 48 46 44 43 45 49 50 51 51 50 48 47 48 46 38 23 11 6 6 7 7 7 6 7 7 6 7 12 23 41 58 68 71 74 79 84 87
27 31 38 49 57 54 48 51 61 64 60 55 52 54 59 60 56 51 50 51 54 57 61 60 56 51 48 49 51 53 56 59 61 62 61 59 58 57 58 61 62 55 40 23 11 6 6 7 7 7 6 5 6 6 10 20 35 52 66 74 78 78 81
32 28 31 38 49 54 49 47 53 58 61 61 57 52 52 57 61 61 58 54 51 51 54 59 63 65 63 61 62 66 70 71 72 72 72 70 69 69 71 73 74 76 74 63 46 29 15 7 5 7 8 8 6 6 6 9 16 28 45 61 72 76 78
51 36 28 31 40 47 46 46 49 53 53 56 58 57 53 51 53 58 61 62 60 55 51 52 56 64 70 75 77 79 82 83 83 81 78 78 79 80 82 84 86 88 88 85 84 78 63 42 23 11 7 7 7 8 7 6 8 13 22 36 53 66 76
66 60 41 29 32 41 43 41 44 48 49 50 51 53 54 53 51 50 53 59 64 65 61 55 54 56 60 67 77 84 88 92 92 89 84 81 82 85 86 89 95 100 98 91 92 98 99 89 73 54 37 22 10 7 8 7 7 8 10 17 28 43 58
53 73 70 49 34 34 39 41 42 44 45 46 46 47 49 51 52 51 50 50 55 64 68 64 61 62 61 62 67 74 84 93 96 95 92 87 83 82 84 92 99 101 101 99 96 98 100 100 99 96 86 68 41 19 11 9 8 8 7 9 13 21 32
28 56 80 82 63 43 35 35 38 43 44 43 42 44 45 46 47 50 51 48 46 53 65 68 65 67 73 73 67 63 68 82 94 97 97 94 88 82 83 94 101 98 99 102 103 104 103 100 100 100 100 98 83 59 43 30 17 11 9 7 8 10 15
13 29 59 87 95 81 61 45 37 35 36 37 38 39 40 41 41 43 46 48 44 43 55 67 68 71 77 72 59 51 52 64 82 96 98 95 91 90 93 99 98 94 96 99 100 103 104 102 102 100 99 101 99 93 84 62 40 31 24 13 9 8 9
7 14 31 60 87 99 97 85 70 55 43 36 33 33 35 36 37 38 39 43 42 38 48 66 72 75 74 59 43 41 44 47 63 84 95 95 91 92 98 101 96 92 92 92 94 99 104 104 103 100 100 100 100 101 97 80 66 61 49 33 27 23 18
4 7 15 35 61 85 100 104 100 91 79 64 48 38 34 32 33 35 36 39 39 35 44 64 75 76 72 55 40 44 47 43 49 67 83 90 88 87 90 93 93 93 92 90 92 95 99 105 106 102 98 97 95 96 94 83 74 70 63 54 49 45 37
5 4 7 20 42 68 89 101 103 104 104 98 83 67 55 46 41 40 38 41 41 35 40 60 74 77 75 60 45 46 51 46 42 52 68 81 84 81 80 81 84 87 88 88 90 91 92 100 108 108 103 100 97 95 90 82 75 73 71 68 65 61 57
5 5 5 10 25 48 73 92 102 105 106 106 100 92 86 77 67 61 56 53 49 39 37 56 73 77 79 74 55 43 46 49 45 44 52 63 72 75 75 75 75 78 81 82 85 88 90 95 102 107 107 106 105 102 93 85 81 81 82 81 77 73 69
5 5 5 6 14 31 55 78 95 102 103 102 98 96 97 95 89 86 81 71 59 42 35 51 73 78 80 85 77 55 43 44 49 53 56 58 62 67 69 71 72 72 76 79 81 84 89 92 97 104 107 106 106 106 100 91 89 90 89 85 80 76 72
6 5 5 5 7 16 37 63 86 97 100 100 99 97 98 99 98 99 97 86 67 45 32 45 72 82 78 85 93 84 65 50 46 54 66 73 76 74 73 73 72 70 69 72 76 83 91 95 98 103 106 105 107 108 101 93 90 89 85 79 74 72 69
7 6 5 5 5 8 22 49 77 95 100 101 102 102 101 100 98 99 101 96 78 53 32 37 65 86 83 81 90 96 92 81 67 58 62 76 88 93 90 84 80 76 74 76 80 89 98 102 102 104 106 106 104 100 94 88 86 83 79 76 75 76 76
8 7 5 5 5 5 13 35 64 89 100 100 101 102 100 98 96 95 99 102 95 74 46 35 54 83 91 85 86 93 97 99 95 84 74 76 85 95 99 97 91 88 88 91 93 97 101 104 103 101 101 97 92 87 84 84 87 87 88 89 90 89 88
8 8 6 6 6 4 7 21 47 76 96 101 100 98 94 91 91 92 96 102 105 97 74 50 47 70 90 91 87 92 97 99 100 100 95 89 86 88 93 98 99 99 98 98 99 101 105 106 102 97 94 92 88 87 88 90 92 95 99 101 98 92 88
9 8 7 6 6 5 5 10 28 56 84 97 99 97 91 85 83 86 92 98 102 104 98 78 57 58 78 92 90 91 99 102 102 103 105 102 97 92 89 90 94 98 101 102 103 103 105 105 102 98 96 94 93 93 94 92 90 91 95 95 88 81 79
11 9 8 7 6 5 5 6 13 33 60 82 91 91 87 83 81 81 84 88 93 100 106 103 82 62 64 81 91 92 97 103 104 103 104 105 104 101 98 94 90 89 91 95 99 102 103 103 101 99 98 95 92 93 93 89 85 84 84 81 77 73 74
12 10 8 8 7 6 5 5 7 15 37 65 83 86 83 84 86 85 82 83 90 97 103 106 101 80 63 68 84 92 94 100 104 103 101 102 103 103 102 103 101 96 90 87 86 89 92 94 94 96 97 95 93 92 91 88 86 84 82 80 77 76 78
13 11 9 8 7 6 6 5 5 8 23 51 78 88 89 91 94 93 89 89 94 98 99 101 103 94 73 63 72 86 92 96 100 102 100 101 104 104 101 101 104 104 101 95 89 84 83 82 82 83 85 87 89 93 94 93 92 88 85 83 83 82 85
14 12 11 9 8 7 6 6 5 6 13 36 69 92 99 102 102 97 92 93 97 100 100 99 99 96 82 64 61 76 89 93 95 99 100 100 102 102 100 100 101 103 104 104 100 92 86 83 80 78 75 73 74 78 84 89 93 95 95 96 94 92 92
18 13 11 10 8 8 7 5 5 6 7 21 53 88 105 108 106 98 90 91 96 100 102 100 97 94 85 68 57 66 83 91 93 96 98 99 99 98 98 100 102 102 104 106 107 102 95 90 87 84 82 79 75 71 70 70 74 78 83 89 94 95 97
24 16 12 11 8 8 8 6 5 6 6 10 33 69 97 107 104 95 87 85 91 98 102 100 96 92 86 72 59 60 72 84 89 92 94 96 98 99 100 101 101 101 102 104 107 107 103 99 95 91 89 88 87 85 82 78 74 71 68 69 72 76 81
34 21 14 12 10 8 7 7 6 5 6 6 14 40 74 96 100 92 83 79 85 95 99 97 94 94 91 79 64 57 61 70 77 81 85 91 95 99 102 101 100 101 102 102 104 106 105 103 102 100 97 94 91 90 91 94 94 90 84 80 76 71 69
46 32 20 14 12 9 8 8 7 6 6 6 7 18 44 72 86 87 80 76 81 91 96 95 93 94 96 90 75 60 55 60 66 69 73 80 87 93 98 100 99 100 101 102 105 107 105 102 103 105 105 104 101 96 95 99 102 100 96 93 93 89 84
Wind_Speed
22 22 22 22 22 23 24 25 25 25 26 26 26 26 28 29 32 36 40 44 47 49 51 53 54 55 57 61 64 68 71 74 78 81 84 89 94 100 104 108 109 110 108 106 105 105 106 107 108 109 109 108 107 106 106 105 104 103 102 101 99 97 96
23 23 22 21 21 22 22 23 23 23 24 24 23 23 24 25 26 29 32 36 39 42 45 48 50 52 53 55 59 62 65 68 71 74 77 79 83 88 94 101 107 110 111 110 109 107 106 107 108 108 108 109 109 108 108 108 107 105 104 103 101 99 98
24 23 22 21 21 21 21 21 22 22 21 21 21 20 21 21 22 24 27 30 33 36 39 42 45 47 49 51 53 56 59 61 63 66 68 71 74 77 82 88 96 103 109 112 112 111 109 108 109 108 107 108 109 110 110 109 108 107 106 105 104 102 100
24 23 22 21 21 21 21 20 20 21 20 19 19 19 19 19 20 21 23 25 27 30 33 36 39 41 43 45 47 49 51 54 56 58 60 63 66 69 73 77 83 91 99 106 112 114 113 111 111 110 109 108 109 110 111 111 110 109 109 108 106 105 103
23 23 22 21 21 21 21 20 20 20 19 19 18 18 18 19 19 20 21 22 24 26 28 31 33 36 38 39 41 44 46 49 51 53 56 59 62 65 67 71 76 81 87 95 103 110 114 114 114 113 111 110 110 111 111 112 112 111 110 109 108 107 105
23 22 21 20 20 20 21 21 20 19 19 18 18 18 18 19 20 20 21 22 23 24 26 28 30 32 34 36 37 40 42 44 46 48 50 53 56 60 64 67 71 75 79 85 91 99 107 113 116 115 114 113 113 112 112 113 113 112 112 111 110 108 107
23 22 22 20 19 19 20 20 20 20 20 19 17 17 18 18 19 21 22 23 23 24 25 26 28 29 31 33 34 36 38 39 41 42 43 45 48 52 57 61 65 69 74 78 82 88 96 105 113 117 117 115 115 115 114 113 113 113 112 112 111 110 108
23 22 22 21 19 18 18 19 20 19 19 19 18 17 17 19 19 20 21 23 24 24 25 26 27 28 29 31 33 34 35 36 36 36 36 37 38 41 46 51 57 62 67 72 76 80 85 93 103 111 116 117 117 117 116 114 113 112 112 112 112 111 110
24 23 22 21 20 18 17 18 19 19 19 19 19 18 16 17 19 20 21 22 23 24 25 26 27 28 29 31 32 32 32 33 33 32 32 32 32 32 34 38 45 51 57 63 69 74 78 84 91 99 108 114 117 117 116 115 114 113 112 111 111 111 110
25 24 23 22 21 19 17 17 19 19 19 18 18 19 17 15 16 18 20 21 23 24 25 26 27 28 29 30 31 30 30 30 30 29 29 29 28 27 26 27 31 38 45 51 57 63 70 76 81 87 96 105 112 116 116 116 116 115 113 111 111 110 110
26 25 24 23 23 22 19 17 17 19 19 18 17 18 18 17 15 15 17 20 22 24 25 26 27 28 29 30 30 30 29 29 29 28 27 26 26 24 23 21 21 25 31 38 45 51 58 64 70 76 82 91 101 109 113 115 116 116 115 113 113 111 109
28 26 26 25 25 24 22 19 18 18 19 19 18 17 17 18 17 15 15 16 19 22 25 26 27 28 29 30 31 30 30 29 28 28 27 25 24 23 21 20 18 18 20 24 31 38 45 51 57 62 69 77 86 95 102 108 112 114 115 115 115 112 109
30 28 27 27 27 27 25 21 20 20 19 19 19 18 17 17 18 18 16 16 17 19 22 25 27 29 30 30 31 31 30 30 29 28 27 25 24 23 21 19 18 17 16 16 18 23 29 36 43 49 55 62 70 79 88 95 101 107 111 113 114 113 110
33 31 30 28 28 29 28 24 22 22 21 20 20 20 18 18 18 19 18 17 17 18 19 21 24 27 30 31 31 31 31 31 31 30 28 26 25 23 22 20 19 18 17 16 14 14 17 22 28 34 41 48 56 64 73 81 88 95 101 106 110 111 112
32 33 32 31 30 31 30 28 26 25 25 23 21 20 20 19 19 20 20 19 19 19 19 20 22 24 27 30 32 33 33 32 32 31 29 27 26 25 23 21 20 19 19 18 16 15 15 17 19 23 29 36 43 50 58 65 72 80 87 94 101 106 109
31 32 33 33 33 34 33 31 30 29 28 27 25 23 21 21 22 22 21 21 21 20 20 21 22 24 25 27 30 33 34 34 33 32 31 29 28 26 24 23 22 21 21 20 19 18 18 19 20 21 24 28 34 39 45 51 58 65 73 80 87 94 100
29 30 32 33 33 35 36 35 33 33 32 31 29 27 24 24 24 24 24 24 24 23 22 22 22 24 26 28 29 31 33 35 35 33 32 31 30 28 26 25 24 23 22 21 21 21 21 23 23 23 24 26 29 32 36 42 47 53 59 66 72 79 85
28 29 30 32 33 34 37 37 36 36 36 35 33 31 29 28 27 27 27 27 26 25 24 23 23 23 25 27 29 30 31 33 35 34 34 33 32 30 29 28 27 25 24 23 23 22 23 24 25 25 26 27 28 29 32 35 38 42 46 51 57 62 67
28 28 28 29 31 32 33 35 36 36 37 37 36 34 33 31 31 30 29 29 29 27 25 24 23 23 23 24 26 27 28 30 32 33 34 34 33 32 31 31 29 27 26 25 24 23 23 24 26 26 27 28 29 30 31 31 32 34 37 39 43 47 52
29 28 27 27 29 30 31 32 33 33 34 36 36 35 34 34 33 32 31 31 30 28 26 24 23 22 21 21 21 21 23 26 29 31 32 33 34 33 33 32 31 29 28 27 26 25 25 25 26 27 28 29 30 31 31 30 30 31 32 34 35 38 41
30 29 28 26 27 28 29 30 31 31 31 32 33 33 33 33 32 32 32 31 30 28 25 23 22 20 19 18 18 18 19 21 24 27 29 31 33 33 33 33 32 31 30 28 27 26 25 25 26 27 29 30 30 31 31 31 31 31 31 32 33 34 36
32 30 29 26 26 26 27 28 29 29 29 29 29 29 29 28 29 29 29 29 29 27 25 23 21 19 17 15 15 17 17 18 20 22 24 27 30 31 32 33 33 32 31 29 28 26 26 25 26 27 28 29 29 30 31 31 31 31 31 32 33 34 34
33 31 30 27 26 25 25 26 27 28 28 28 27 27 26 25 25 25 25 26 26 26 24 22 20 18 16 13 13 14 16 17 18 19 21 24 27 29 30 32 33 33 32 31 29 28 26 26 26 26 27 27 28 29 30 31 31 32 32 33 34 34 34
34 33 31 29 27 25 24 24 25 26 26 26 26 25 24 23 23 22 23 23 24 24 24 22 20 18 16 14 12 13 14 15 16 17 18 20 22 25 27 30 31 32 32 32 30 29 27 26 25 26 26 27 28 29 31 32 32 33 33 34 33 33 33
34 34 32 30 29 26 24 23 24 24 24 25 25 24 24 23 22 22 21 22 22 23 23 22 20 19 17 15 13 13 13 13 14 15 17 18 19 21 24 26 28 30 31 30 30 29 27 26 26 26 27 28 30 31 32 32 32 32 32 32 32 32 33
34 34 33 32 30 28 25 22 22 23 23 23 23 23 23 23 22 22 21 21 21 22 23 23 22 20 19 17 15 14 13 13 12 13 13 14 16 18 20 22 24 26 27 28 28 28 27 27 28 28 29 30 31 31 31 30 30 30 30 30 31 31 32
34 34 34 33 31 29 26 23 21 21 22 22 22 22 23 23 22 21 20 20 21 21 22 23 23 22 21 19 17 15 14 13 13 12 11 12 12 14 16 18 20 22 24 25 26 26 26 27 28 28 30 30 31 30 30 30 30 30 30 30 31 33 33
34 34 34 33 32 30 28 25 22 20 21 22 22 22 22 22 22 21 21 20 20 21 22 23 24 24 23 21 19 17 15 15 14 13 12 12 11 11 12 14 16 18 21 22 23 25 25 26 26 27 28 30 31 31 31 32 32 32 32 33 33 34 34
33 33 33 33 32 30 29 28 25 21 20 20 21 21 21 21 21 22 22 21 20 20 21 23 24 25 24 23 21 19 17 16 15 14 13 13 12 12 11 12 13 15 17 19 21 22 24 25 26 26 27 29 30 32 33 34 34 34 34 34 34 34 33
33 33 33 33 32 30 29 27 27 25 22 21 21 21 20 20 20 22 22 22 20 20 21 23 24 25 25 25 23 21 19 17 17 16 15 14 13 13 13 12 13 13 14 16 18 20 22 23 24 25 26 28 29 30 32 33 33 34 34 35 35 35 34
32 32 33 33 32 31 29 27 26 26 24 22 22 22 21 20 21 22 22 22 21 20 21 22 23 24 25 26 25 23 21 19 18 17 16 16 15 14 14 14 14 14 14 15 16 18 19 21 22 23 25 26 27 28 30 31 32 33 34 34 34 35 35
31 31 32 32 32 31 29 28 26 25 24 23 23 23 22 22 23 23 23 23 22 21 21 21 22 23 24 26 26 24 23 21 20 19 18 18 17 17 16 15 14 14 15 15 16 16 17 19 20 21 22 24 25 26 28 29 30 31 32 33 33 34 35
30 30 31 31 31 31 30 28 26 25 24 23 22 22 23 23 24 25 24 23 22 22 21 21 21 21 22 24 26 26 24 23 21 21 20 20 19 19 18 17 16 15 15 16 16 17 17 18 19 20 21 22 23 24 25 26 28 29 30 31 33 33 34
29 29 30 30 30 30 29 28 26 25 24 23 21 21 22 23 24 25 24 23 22 21 21 21 21 20 21 22 25 26 26 24 23 22 22 21 21 20 20 20 19 17 16 16 16 17 17 18 19 19 20 21 22 23 24 25 26 27 28 29 29 30 31
28 28 29 29 29 29 28 27 25 24 23 22 21 20 21 22 23 24 24 23 21 21 21 21 20 20 20 21 23 26 27 26 24 23 22 22 22 22 22 22 21 20 19 18 18 18 17 18 18 19 20 21 21 21 22 24 25 26 27 27 28 28 29
28 27 28 28 28 28 28 27 26 24 23 22 21 19 19 20 21 23 23 22 21 20 20 20 20 20 20 20 22 24 26 27 25 24 23 23 23 23 23 23 23 22 22 21 20 20 19 18 18 19 20 21 22 22 22 22 24 25 26 27 28 29 29
Wind_Direction
331 326 321 317 312 306 303 303 304 300 293 288 286 283 276 269 261 254 249 245 242 240 240 239 238 238 239 239 238 238 239 240 241 241 242 242 243 243 243 242 241 240 237 236 237 238 237 236 236 236 236 236 235 236 237 238 238 239 238 237 236 235 234
335 333 329 325 322 317 310 306 306 305 299 291 288 285 280 273 265 258 252 247 244 240 239 238 237 237 238 238 238 238 239 240 241 242 243 243 244 243 243 243 242 241 239 237 238 238 238 238 237 236 235 236 235 235 236 236 237 238 238 238 238 236 235
331 334 334 332 328 325 320 313 308 307 305 297 290 285 282 275 268 261 254 249 245 241 239 238 237 237 238 239 239 239 240 241 243 244 245 246 246 245 244 244 243 242 240 238 238 238 238 239 239 237 235 236 236 235 235 235 235 236 237 237 238 237 236
326 329 332 333 333 331 328 323 315 309 307 302 295 287 281 276 270 263 256 250 246 243 241 239 238 239 239 240 240 240 241 243 244 246 247 248 248 248 246 245 244 243 241 239 238 238 238 238 239 239 237 236 236 236 235 235 235 235 236 236 237 237 237
320 324 327 329 331 332 333 332 327 318 310 304 299 291 283 275 270 264 259 254 249 244 241 240 239 240 240 240 241 241 242 244 245 247 248 249 250 250 248 247 246 244 242 240 238 237 237 237 238 239 238 237 236 236 235 235 235 235 235 235 236 236 236
315 318 322 325 327 328 329 332 333 329 320 310 301 294 287 278 271 266 262 258 254 250 246 244 242 242 242 242 243 243 244 245 246 248 250 250 250 250 249 248 247 246 244 242 240 237 236 236 237 238 238 238 238 237 236 235 235 235 234 234 235 235 236
309 311 315 319 324 326 326 327 329 331 329 323 311 297 288 282 276 270 266 262 259 256 254 251 249 246 245 244 244 245 246 247 248 250 252 253 253 252 250 249 248 247 245 243 241 239 236 235 235 236 236 237 238 238 237 236 235 235 234 234 234 235 235
302 305 307 311 317 324 327 328 328 327 327 326 323 311 295 285 279 274 269 266 262 259 257 255 253 251 249 248 248 248 249 250 251 253 254 256 256 256 254 251 248 247 246 244 242 240 237 235 234 234 235 235 235 237 237 237 237 236 235 235 234 234 235
295 297 299 302 306 314 322 327 328 328 325 322 321 320 311 295 283 276 272 269 265 262 259 257 255 254 254 253 254 254 254 255 255 255 257 258 259 260 259 255 251 248 246 244 243 241 239 237 234 233 234 234 234 235 236 236 237 237 236 235 235 234 234
289 289 291 294 297 302 309 318 322 324 326 325 320 317 317 311 296 283 276 271 268 265 262 260 258 257 258 259 260 261 260 260 259 259 260 261 261 262 263 261 257 252 248 245 243 242 241 239 237 234 233 233 233 234 234 234 235 236 236 236 236 235 234
284 284 284 286 289 292 296 303 311 315 319 323 323 318 314 313 309 297 285 276 270 267 265 263 261 259 260 261 263 264 263 262 262 261 262 263 263 263 264 265 263 257 251 247 244 242 241 240 239 237 235 233 233 233 233 233 234 234 235 235 236 235 235
280 280 280 280 282 285 287 291 297 303 307 312 317 319 316 313 310 307 298 287 278 271 266 264 262 261 261 262 263 263 262 262 261 261 262 263 264 264 263 264 264 262 257 251 246 243 241 240 239 238 236 235 234 234 234 233 233 233 234 234 235 235 235
279 277 277 276 276 278 281 283 286 291 296 301 305 310 314 314 312 309 305 298 289 281 273 267 263 262 261 262 262 262 261 260 260 260 260 261 262 263 262 261 260 260 259 257 252 247 243 239 237 236 235 235 234 234 234 234 234 233 233 233 234 235 235
279 276 274 274 273 273 275 277 279 282 286 290 295 299 304 308 310 311 309 304 296 290 284 277 270 265 262 260 260 259 259 258 258 258 258 259 259 260 259 259 258 256 255 254 253 252 248 243 238 234 232 232 232 232 233 234 235 234 234 234 234 234 234
281 276 273 272 271 271 272 273 275 277 280 283 285 289 294 299 304 307 309 307 302 294 288 285 281 276 269 263 258 256 255 256 256 257 257 257 256 256 256 256 255 254 251 247 243 241 243 244 240 234 231 229 229 230 231 233 234 235 235 235 234 234 234
288 279 274 271 269 269 270 271 272 274 277 279 281 283 287 292 297 301 304 305 304 299 291 286 285 283 280 274 265 257 253 252 253 254 255 255 255 254 254 254 253 252 249 246 241 234 232 234 235 232 230 230 230 228 229 230 231 233 234 235 235 235 235
296 286 278 273 270 269 269 270 270 271 274 276 278 280 283 286 291 295 299 301 302 300 295 289 287 286 285 282 274 263 254 249 249 250 251 252 254 254 253 253 252 250 248 247 244 238 233 231 230 228 227 229 230 229 228 229 230 231 233 235 236 236 237
305 294 284 277 273 270 269 270 270 270 272 273 275 277 280 282 285 289 293 296 297 298 296 293 291 291 290 285 278 268 257 248 245 245 247 249 251 252 252 251 251 249 248 247 245 241 237 234 232 228 226 227 229 228 228 228 229 230 231 233 234 235 236
315 304 292 282 277 274 272 272 271 271 271 272 274 275 277 279 282 285 288 290 292 294 295 293 293 295 296 290 281 270 259 250 243 241 244 246 248 249 249 249 250 250 248 247 245 242 239 237 235 232 228 227 228 228 228 227 226 227 228 229 229 230 232
324 315 305 292 282 278 276 276 275 274 273 274 274 275 276 277 279 282 284 285 287 289 290 290 292 297 300 295 285 275 263 253 246 241 241 244 246 247 247 248 249 249 248 247 246 243 240 236 234 232 229 227 227 227 227 226 225 225 225 225 225 226 228
330 323 315 303 290 282 278 278 278 278 277 276 276 277 277 277 278 280 281 282 282 282 284 285 288 295 301 296 286 278 268 259 251 245 243 244 245 246 247 247 247 247 247 247 246 245 242 237 234 232 231 230 229 228 227 226 225 225 225 225 225 226 226
334 329 323 313 300 289 282 279 280 280 278 277 277 279 280 280 280 280 279 278 277 275 277 279 283 290 298 296 286 278 272 265 257 251 248 247 247 247 247 247 246 246 247 247 246 245 243 239 236 234 233 231 230 229 228 226 225 225 225 225 226 226 227
336 333 328 321 310 299 288 282 281 281 280 278 277 278 280 281 281 280 278 276 273 270 270 273 276 282 289 293 287 279 273 268 263 257 251 250 250 249 248 246 246 245 245 246 245 244 241 238 236 235 233 232 230 229 228 227 226 225 225 226 227 228 228
338 336 332 327 320 310 297 287 283 282 281 279 276 276 279 280 280 279 278 275 270 266 265 267 269 272 279 285 285 281 276 271 268 263 257 252 250 249 248 247 245 244 243 243 243 242 239 237 235 234 232 230 229 228 228 227 226 225 226 227 228 229 229
338 338 335 332 327 319 307 294 286 283 282 280 277 275 276 277 277 276 276 274 270 265 263 263 263 264 269 275 278 279 280 277 274 270 265 259 253 249 248 246 244 243 242 241 240 238 236 235 233 231 229 227 226 226 226 227 227 227 227 228 228 228 228
338 338 337 335 332 327 316 301 289 283 282 280 278 274 273 273 273 274 274 273 270 266 262 261 260 259 261 266 270 272 274 277 277 276 273 268 261 253 248 245 243 242 240 239 238 236 235 234 232 230 228 226 226 226 226 227 228 228 228 228 228 228 229
337 338 338 337 336 333 324 310 294 284 280 280 278 275 272 271 270 271 271 270 269 267 264 260 259 257 256 259 263 264 265 268 272 274 275 273 268 260 253 248 244 242 241 240 239 238 237 236 235 232 230 228 228 228 228 228 228 228 229 229 229 229 229
335 337 338 338 338 337 331 321 306 290 279 277 277 277 274 273 272 271 269 267 266 267 265 262 258 255 254 255 257 258 257 258 262 266 268 270 270 266 260 254 249 246 244 243 241 240 240 240 239 236 234 232 230 230 230 230 229 229 229 230 230 231 231
333 336 338 339 339 339 335 328 318 304 286 276 276 277 277 276 275 273 272 271 269 266 264 262 259 255 253 253 255 255 254 253 255 256 258 261 265 268 266 261 254 249 246 245 244 242 241 241 240 238 237 235 233 233 233 233 233 232 232 233 234 234 235
332 334 336 338 340 341 339 333 325 316 302 287 280 279 282 283 282 279 277 277 275 269 263 261 259 255 252 250 252 253 252 251 251 252 253 254 257 262 266 266 262 255 249 246 244 243 243 242 240 239 238 237 236 235 235 236 236 236 237 237 238 238 238
331 333 335 337 339 342 342 338 331 322 310 297 287 283 285 288 288 286 284 282 279 273 266 261 258 255 252 248 248 250 251 251 250 250 251 252 253 256 260 263 265 263 257 252 247 244 242 242 241 241 240 239 238 238 238 238 238 239 240 240 241 241 241
329 331 333 336 338 341 343 342 337 328 316 303 292 286 285 287 289 289 288 285 280 276 270 263 259 257 253 248 246 247 249 251 251 250 250 251 253 254 255 258 260 261 260 258 255 250 246 243 241 240 240 240 240 240 240 240 241 241 242 242 243 243 242
328 329 332 334 337 340 342 343 342 336 325 311 297 286 281 282 284 286 286 284 279 275 270 265 260 259 255 249 245 245 247 249 251 251 251 252 253 254 256 257 258 258 259 259 258 256 254 251 247 244 242 241 241 241 241 241 241 242 243 243 244 244 244
327 328 330 333 336 339 342 344 344 341 333 321 306 290 281 278 280 283 285 282 277 272 267 263 259 258 258 252 245 242 244 246 249 250 251 252 253 255 256 257 257 258 260 261 261 259 258 256 254 252 248 246 243 242 241 242 242 242 243 243 244 245 245
326 327 328 331 334 337 341 343 344 343 339 331 317 300 286 280 280 282 284 282 277 270 264 260 256 256 257 254 247 243 243 245 247 248 249 250 251 252 253 254 255 256 258 260 262 262 261 259 258 256 254 252 250 246 244 243 244 244 244 244 244 244 245
326 327 327 329 331 334 338 341 343 344 344 339 330 314 296 284 281 282 284 282 277 270 263 257 255 254 255 254 251 245 243 244 246 247 248 249 249 250 251 252 253 254 255 257 259 261 263 263 262 260 257 256 254 252 249 247 245 245 245 245 244 244 244